International Skating Union - Official Site

ISU World Allround Championships 2017
March 4-5, 2017

Draw | Lap Times | Index | Classification

Referee: Susan  SANDVIG-SHOBE  (USA)
Starter: Darrell  HAACK  (CAN)
StartTime: EndTime: Air Temp: Ice Temp: Humidity:
14:29 15:36 16.6℃ -10.5℃ 23.9%
Result 3000m Ladies
Rankings as of Mar 5 2017 5:24PM
Rank: No.: Name: Nation: Time: Behind: Points:
1 105 Martina  Sáblíková CZE CZE 4:02.21200m - 20.34 - (20.3)
600m - 51.34 - (31.0)
1000m - 1:22.83 - (31.4)
1400m - 1:54.68 - (31.8)
1800m - 2:26.49 - (31.8)
2200m - 2:58.26 - (31.7)
2600m - 3:30.12 - (31.8)
3000m - 4:02.21 - (32.0)
40.368
2 116 Ireen  Wüst NED NED 4:03.71200m - 20.02 - (20.0)
600m - 50.58 - (30.5)
1000m - 1:21.26 - (30.6)
1400m - 1:52.54 - (31.2)
1800m - 2:24.11 - (31.5)
2200m - 2:56.26 - (32.1)
2600m - 3:29.51 - (33.2)
3000m - 4:03.71 - (34.2)
1.50 40.618
3 113 Antoinette  de Jong NED NED 4:03.77200m - 20.27 - (20.2)
600m - 51.50 - (31.2)
1000m - 1:22.66 - (31.1)
1400m - 1:54.20 - (31.5)
1800m - 2:26.03 - (31.8)
2200m - 2:58.23 - (32.2)
2600m - 3:30.85 - (32.6)
3000m - 4:03.77 - (32.9)
1.56 40.628
4 126 Natalia  Voronina RUS RUS 4:05.77200m - 20.43 - (20.4)
600m - 51.73 - (31.3)
1000m - 1:23.43 - (31.7)
1400m - 1:55.27 - (31.8)
1800m - 2:27.24 - (31.9)
2200m - 2:59.66 - (32.4)
2600m - 3:32.51 - (32.8)
3000m - 4:05.77 - (33.2)
3.56 40.961
5 127 Anna  Yurakova RUS RUS 4:06.26200m - 20.92 - (20.9)
600m - 53.17 - (32.2)
1000m - 1:25.12 - (31.9)
1400m - 1:56.84 - (31.7)
1800m - 2:28.82 - (31.9)
2200m - 3:01.11 - (32.2)
2600m - 3:33.48 - (32.3)
3000m - 4:06.26 - (32.7)
4.05 41.043
6 111 Miho  Takagi JPN JPN 4:06.52200m - 19.94 - (19.9)
600m - 52.09 - (32.1)
1000m - 1:24.29 - (32.2)
1400m - 1:56.32 - (32.0)
1800m - 2:28.06 - (31.7)
2200m - 2:59.84 - (31.7)
2600m - 3:32.52 - (32.6)
3000m - 4:06.52 - (34.0)
4.31 41.086
7 124 Olga  Graf RUS RUS 4:06.96200m - 21.06 - (21.0)
600m - 52.46 - (31.4)
1000m - 1:24.57 - (32.1)
1400m - 1:57.07 - (32.5)
1800m - 2:29.53 - (32.4)
2200m - 3:01.95 - (32.4)
2600m - 3:34.43 - (32.4)
3000m - 4:06.96 - (32.5)
4.75 41.160
8 114 Marije  Joling NED NED 4:07.91200m - 19.87 - (19.8)
600m - 50.31 - (30.4)
1000m - 1:21.25 - (30.9)
1400m - 1:52.91 - (31.6)
1800m - 2:25.32 - (32.4)
2200m - 2:58.58 - (33.2)
2600m - 3:32.45 - (33.8)
3000m - 4:07.91 - (35.4)
5.70 41.318
9 103 Ivanie  Blondin CAN CAN 4:08.29200m - 20.50 - (20.5)
600m - 51.76 - (31.2)
1000m - 1:23.47 - (31.7)
1400m - 1:55.47 - (32.0)
1800m - 2:27.97 - (32.5)
2200m - 3:00.53 - (32.5)
2600m - 3:33.91 - (33.3)
3000m - 4:08.29 - (34.3)
6.08 41.381
10 108 Bente  Kraus GER GER 4:08.36200m - 20.62 - (20.6)
600m - 51.96 - (31.3)
1000m - 1:23.76 - (31.8)
1400m - 1:55.91 - (32.1)
1800m - 2:28.45 - (32.5)
2200m - 3:01.36 - (32.9)
2600m - 3:34.79 - (33.4)
3000m - 4:08.36 - (33.5)
6.15 41.393
11 110 Ayano  Sato JPN JPN 4:09.82200m - 20.04 - (20.0)
600m - 51.87 - (31.8)
1000m - 1:24.22 - (32.3)
1400m - 1:56.60 - (32.3)
1800m - 2:29.37 - (32.7)
2200m - 3:02.71 - (33.3)
2600m - 3:36.36 - (33.6)
3000m - 4:09.82 - (33.4)
7.61 41.636
12 102 Marina  Zueva BLR BLR 4:09.93200m - 20.62 - (20.6)
600m - 53.05 - (32.4)
1000m - 1:25.61 - (32.5)
1400m - 1:57.76 - (32.1)
1800m - 2:30.26 - (32.5)
2200m - 3:03.16 - (32.9)
2600m - 3:36.47 - (33.3)
3000m - 4:09.93 - (33.4)
7.72 41.655
13 120 Ida  Njåtun NOR NOR 4:09.99200m - 20.04 - (20.0)
600m - 51.38 - (31.3)
1000m - 1:23.22 - (31.8)
1400m - 1:55.41 - (32.1)
1800m - 2:27.81 - (32.4)
2200m - 3:00.92 - (33.1)
2600m - 3:34.92 - (34.0)
3000m - 4:09.99 - (35.0)
7.78 41.665
14 121 Natalia  Czerwonka POL POL 4:10.32200m - 19.98 - (19.9)
600m - 51.29 - (31.3)
1000m - 1:23.00 - (31.7)
1400m - 1:55.23 - (32.2)
1800m - 2:27.69 - (32.4)
2200m - 3:00.94 - (33.2)
2600m - 3:34.86 - (33.9)
3000m - 4:10.32 - (35.4)
8.11 41.720
15 122 Katarzyna  Wozniak POL POL 4:11.59200m - 20.65 - (20.6)
600m - 51.97 - (31.3)
1000m - 1:23.56 - (31.5)
1400m - 1:55.82 - (32.2)
1800m - 2:28.47 - (32.6)
2200m - 3:01.88 - (33.4)
2600m - 3:36.08 - (34.2)
3000m - 4:11.59 - (35.5)
9.38 41.931
16 112 Nana  Takagi JPN JPN 4:12.18200m - 21.18 - (21.1)
600m - 53.76 - (32.5)
1000m - 1:26.55 - (32.7)
1400m - 1:59.23 - (32.6)
1800m - 2:31.91 - (32.6)
2200m - 3:04.85 - (32.9)
2600m - 3:38.30 - (33.4)
3000m - 4:12.18 - (33.8)
9.97 42.030
17 109 Francesca  Lollobrigida ITA ITA 4:12.20200m - 20.26 - (20.2)
600m - 51.60 - (31.3)
1000m - 1:23.75 - (32.1)
1400m - 1:56.52 - (32.7)
1800m - 2:29.93 - (33.4)
2200m - 3:03.63 - (33.7)
2600m - 3:37.98 - (34.3)
3000m - 4:12.20 - (34.2)
9.99 42.033
18 123 Luiza  Zlotkowska POL POL 4:12.88200m - 20.36 - (20.3)
600m - 52.32 - (31.9)
1000m - 1:24.64 - (32.3)
1400m - 1:57.10 - (32.4)
1800m - 2:30.22 - (33.1)
2200m - 3:03.83 - (33.6)
2600m - 3:38.07 - (34.2)
3000m - 4:12.88 - (34.8)
10.67 42.146
19 101 Jelena  Peeters BEL BEL 4:12.89200m - 20.86 - (20.8)
600m - 54.33 - (33.4)
1000m - 1:27.57 - (33.2)
1400m - 2:00.76 - (33.1)
1800m - 2:33.63 - (32.8)
2200m - 3:06.94 - (33.3)
2600m - 3:39.95 - (33.0)
3000m - 4:12.89 - (32.9)
10.68 42.148
20 106 Nikola  Zdráhalova CZE CZE 4:13.27200m - 20.49 - (20.4)
600m - 53.34 - (32.8)
1000m - 1:26.46 - (33.1)
1400m - 2:00.04 - (33.5)
1800m - 2:33.72 - (33.6)
2200m - 3:07.21 - (33.4)
2600m - 3:40.44 - (33.2)
3000m - 4:13.27 - (32.8)
11.06 42.211
21 128 Carlijn  Schoutens USA USA 4:14.81200m - 21.19 - (21.1)
600m - 53.47 - (32.2)
1000m - 1:25.87 - (32.4)
1400m - 1:58.75 - (32.8)
1800m - 2:31.91 - (33.1)
2200m - 3:05.47 - (33.5)
2600m - 3:39.81 - (34.3)
3000m - 4:14.81 - (35.0)
12.60 42.468
22 107 Saskia  Alusalu EST EST 4:17.75200m - 20.09 - (20.0)
600m - 51.86 - (31.7)
1000m - 1:24.29 - (32.4)
1400m - 1:57.68 - (33.3)
1800m - 2:31.72 - (34.0)
2200m - 3:06.35 - (34.6)
2600m - 3:41.70 - (35.3)
3000m - 4:17.75 - (36.0)
15.54 42.958
23 118 Sofie Karoline  Haugen NOR NOR 4:18.71200m - 21.04 - (21.0)
600m - 53.74 - (32.7)
1000m - 1:26.81 - (33.0)
1400m - 1:59.93 - (33.1)
1800m - 2:33.33 - (33.4)
2200m - 3:07.73 - (34.4)
2600m - 3:42.89 - (35.1)
3000m - 4:18.71 - (35.8)
16.50 43.118
24 119 Camilla  Lund NOR NOR 4:26.56200m - 21.04 - (21.0)
600m - 54.32 - (33.2)
1000m - 1:27.86 - (33.5)
1400m - 2:02.11 - (34.2)
1800m - 2:37.10 - (34.9)
2200m - 3:12.99 - (35.8)
2600m - 3:49.55 - (36.5)
3000m - 4:26.56 - (37.0)
24.35 44.426